Regional Weather Roundup
Issued by NWS

Home | Current Version | Previous Version | Text Only | Print | Product List | Glossary Off
Versions: 1 2 3 4 5 6 7 8 9 10 11 12 13 14 15 16 17 18 19 20 21 22 23 24 25 26 27 28 29 30 31 32 33 34 35 36 37 38 39 40 41 42 43 44 45 46 47 48 49 50

000
ASUS45 KABQ 010301
RWRNM
NEW MEXICO REGIONAL WEATHER ROUNDUP
NATIONAL WEATHER SERVICE ALBUQUERQUE NM
900 PM MDT FRI JUL 31 2015

NOTE: "FAIR" MEANS FEW OR NO CLOUDS BELOW 12,000 FEET AGL WITH NO
       SIGNIFICANT WEATHER OR OBSTRUCTIONS TO VISION.

      THIS PRODUCT IS RELEASED AS TWO VERSIONS.  ONE VERSION NEAR
      THE TOP OF THE HOUR CONTAINING PRELIMINARY DATA FROM ALBUQUERQUE
      AND OTHER STATIONS.  A FINAL VERSION WITH ADDITIONAL DATA IS
      ISSUED ABOUT 10 MINUTES AFTER THE HOUR.

NMZ501-503-504-510>518-010400-
NORTHWEST PLATEAU/NORTHCENTRAL MOUNTAINS

CITY           SKY/WX    TMP DP  RH WIND       PRES   REMARKS
FARMINGTON     CLEAR     70  58  65 S6        30.26R
SANTA FE       LGT RAIN  67  58  72 SE3       30.35R
TAOS           CLOUDY    59  46  63 N5        30.42S

$$
NMZ402-403-502-505>509-010400-
WESTCENTRAL MOUNTAINS/SOUTHWEST MOUNTAINS

CITY           SKY/WX    TMP DP  RH WIND       PRES   REMARKS
GALLUP         LGT RAIN  63  59  87 SE12      30.33R
SILVER CITY      N/A     77  59  53 E6        30.25R

$$
NMZ407-409-411-412-010400-
SOUTHERN DESERTS

CITY           SKY/WX    TMP DP  RH WIND       PRES   REMARKS
DEMING         CLEAR     81  58  45 SE3       30.13R
HOLLOMAN AFB   CLOUDY    85  54  34 SE7       30.13R
ALAMOGORDO     MOCLDY    84  54  34 CALM      30.15R
T OR C         PTCLDY    80  59  48 E10       30.18R

$$
NMZ519>523-010400-
CENTRAL VALLEYS/CENTRAL HIGHLANDS

CITY           SKY/WX    TMP DP  RH WIND       PRES   REMARKS
ALBUQUERQUE    CLOUDY    74  56  53 SE15      30.26S
MORIARTY ARPT  LGT RAIN  64  60  86 CALM      30.36F
CLINES CORNERS CLOUDY    64  61  90 W5        30.40R
BELEN          FAIR      71  55  57 W8        30.27F
SOCORRO        NOT AVBL

$$
NMZ524>526-539-540-010400-
SOUTHCENTRAL MOUNTAINS

CITY           SKY/WX    TMP DP  RH WIND       PRES   REMARKS
RUIDOSO          N/A    N/A N/A N/A MISG        N/A

$$
NMZ527>531-010400-
NORTHEAST HIGHLANDS/NORTHEAST PLAINS

CITY           SKY/WX    TMP DP  RH WIND       PRES   REMARKS
LAS VEGAS      CLOUDY    60  58  92 S8        30.38S
RATON          CLOUDY    63  59  87 SW6       30.32R
CLAYTON        CLOUDY    70  66  87 SE8       30.25R

$$
NMZ532>537-010400-
EASTCENTRAL PLAINS

CITY           SKY/WX    TMP DP  RH WIND       PRES   REMARKS
TUCUMCARI      CLOUDY    67  64  90 S9        30.21R
CANNON AFB     MOCLDY    70  67  89 E3        30.23R
CLOVIS AIRPORT CLOUDY    70  64  83 NE7       30.25R

$$
NMZ028-029-538-010400-
SOUTHEAST PLAINS

CITY           SKY/WX    TMP DP  RH WIND       PRES   REMARKS
ROSWELL        MOCLDY    84  54  35 NE12      30.13R
ARTESIA        PTCLDY    88  50  27 CALM      30.12R
CARLSBAD       CLEAR     86  50  28 SE7       30.07R
HOBBS          PTCLDY    86  48  26 E8        30.14R


$$



USA.gov is the U.S. government's official web portal to all federal, state and local government web resources and services.